GSAT0215 (GALILEO 19) (43055 NORAD) Tracking and Keplerian Element Data

This shows tracking and keplerian element data for the satellite.

Feedback or suggestion? Click here.




ElementValue
Catalog43055
NameGSAT0215 (GALILEO 19)
Epoch Orbit4253
Epoch Day286.0367464
Epoch Year2024
RAAN238.3813
Inclination55.2944
Eccentricity0.0002715
Argument of Perigee280.127
Mean Anonmoly79.8213
Mean Motion1.70473715
Decay Rate1.5E-07
L11 43055U 17079A 24286.03674640 .00000015 00000+0 00000+0 0 9997
L22 43055 55.2944 238.3813 0002715 280.1270 79.8213 1.70473715 42530



Live tracking and technical data element details for GSAT0215 (GALILEO 19) (NORAD 43055). GSAT0215 (GALILEO 19) can be tracked NOW for your location showing map with azimuth and elevation plus other details from your city location.







IsCatalogInMostPopularTable: catalog: 43055, numindb: 903
Update: records affected: 1



GetName: 43055 GSAT0215 (GALILEO 19)

Hit Count: updated at: Wed, 04 Dec 2024 20:44:22 GMT